Temp
72 72 71 70 70 71 71 72 70 71 72 73 74 74 74 74 73 73 73 73 73 73 74 74 74 74 74 73 72 72 73 73 72 71 71 72 73 73 73 72 73 72 71 72 72 71 71 72 72 71 71 70 70 71 71 72 72 71 71 70 71 71 70 70 70 70 70 71 71
72 72 71 68 68 70 71 71 70 71 72 74 74 75 75 75 74 74 74 74 74 74 75 75 75 75 74 73 72 72 72 72 72 71 71 71 72 73 73 72 72 72 72 72 71 71 71 71 71 71 70 70 70 70 71 72 72 71 70 70 70 70 70 70 70 70 70 70 71
72 72 72 71 71 71 71 71 71 72 73 74 75 75 75 75 75 75 75 75 76 76 76 76 76 75 74 73 72 72 72 72 71 71 71 71 72 72 72 72 71 71 71 72 72 71 71 71 70 70 69 70 70 70 70 71 71 70 70 70 70 70 70 69 70 70 70 70 70
72 72 72 72 71 71 71 71 72 73 73 74 75 76 76 76 76 76 76 76 76 76 76 76 77 76 74 73 72 72 71 71 70 70 70 71 71 72 72 71 70 71 71 71 71 71 71 70 70 70 69 70 70 70 70 71 70 70 69 69 70 69 69 69 69 69 69 69 70
72 72 72 71 71 71 72 72 72 73 74 75 75 76 76 77 77 77 76 76 76 76 76 77 77 76 74 73 72 71 71 70 68 69 71 71 71 71 71 71 70 70 71 71 71 70 70 70 70 70 70 70 70 70 71 71 70 70 69 69 69 69 68 68 68 68 68 68 69
73 72 72 72 72 72 73 73 73 74 74 75 75 76 76 76 76 76 76 76 77 76 76 75 76 75 73 72 72 71 71 71 70 70 71 71 71 71 70 70 70 71 71 71 70 69 69 69 69 70 70 70 71 71 71 71 70 69 69 68 68 68 68 67 67 68 67 67 68
73 73 73 73 73 73 73 74 74 74 75 76 75 75 76 76 76 76 76 77 76 76 75 74 75 74 73 73 72 71 71 70 70 71 71 71 70 70 70 70 71 71 71 71 70 69 69 69 69 68 68 67 69 70 71 70 69 68 68 68 67 67 67 67 67 66 66 67 67
74 74 74 74 74 74 75 75 75 75 75 75 75 75 75 76 76 76 76 76 75 75 74 74 75 75 74 73 73 72 71 71 71 71 71 71 70 70 71 71 71 71 72 72 70 69 69 68 68 68 68 68 68 69 70 70 68 67 67 67 67 67 66 67 67 66 65 65 65
75 75 75 75 75 75 75 76 75 75 75 75 75 75 75 75 75 75 75 75 74 74 75 75 75 75 74 73 73 73 72 72 72 71 71 71 71 71 71 71 71 71 72 72 71 70 69 68 68 68 68 68 68 68 69 68 68 67 66 67 67 66 66 66 66 65 65 65 64
75 75 75 75 74 75 75 76 75 75 75 75 75 74 73 72 73 74 75 75 74 75 75 75 75 74 74 73 73 73 73 73 73 72 72 71 71 71 71 71 71 71 71 71 70 70 69 68 68 68 69 68 68 68 68 67 66 66 66 66 66 66 66 65 65 65 65 65 64
75 75 75 75 75 75 75 75 75 75 75 75 75 74 74 72 73 74 75 75 75 75 75 76 75 74 73 73 73 73 74 74 74 73 73 72 71 71 71 71 71 71 71 71 70 69 68 68 68 68 68 68 68 67 67 66 66 65 65 65 66 65 65 64 64 65 65 65 64
75 76 76 76 75 75 75 75 75 75 75 75 76 75 75 75 75 75 75 76 75 75 75 75 75 74 74 73 73 73 73 73 73 73 73 73 72 71 71 71 71 71 71 70 69 68 68 68 68 68 68 68 67 67 66 65 65 65 65 64 65 65 64 64 65 65 66 66 65
76 76 76 76 76 76 75 75 76 76 76 76 76 76 76 76 75 75 75 75 75 75 76 75 75 74 74 74 74 73 73 73 73 73 73 73 72 71 71 71 71 71 70 69 68 68 68 68 68 68 68 68 67 66 65 65 64 64 64 64 64 64 64 64 65 66 66 66 65
76 76 76 76 76 76 75 75 76 76 76 76 76 77 77 76 75 75 75 75 75 76 76 75 74 74 74 73 73 73 73 72 72 72 72 72 71 71 71 71 71 70 69 68 68 68 67 67 68 68 68 68 67 65 64 64 64 64 64 63 62 63 63 64 65 66 65 64 64
76 76 76 76 76 76 75 75 76 76 76 76 76 77 77 77 75 74 74 75 75 76 76 75 75 73 72 72 72 72 72 72 71 71 71 71 70 70 69 70 70 69 68 68 67 67 66 67 67 67 68 68 67 66 64 63 63 63 63 63 62 62 63 64 65 65 64 63 63
75 76 76 76 76 76 76 76 76 76 76 76 76 77 77 77 76 74 73 74 75 75 76 75 75 74 72 70 71 71 71 71 70 69 68 68 67 67 67 67 67 67 67 67 66 65 65 65 66 66 66 67 67 66 64 62 61 61 62 62 62 63 63 64 64 64 63 62 62
76 76 76 76 76 76 76 76 76 77 77 77 76 77 77 77 76 74 72 72 74 75 75 75 75 74 72 70 70 69 69 69 68 67 65 64 64 64 63 63 64 64 65 66 65 64 64 64 64 64 65 65 66 65 64 62 61 60 61 62 63 63 63 63 63 63 62 61 61
76 76 76 76 76 76 76 76 76 77 77 77 77 77 77 77 76 74 73 72 73 74 75 75 75 73 71 70 69 68 68 67 67 66 65 64 63 62 61 61 62 63 64 64 65 64 64 64 63 63 64 64 64 64 63 62 61 60 61 61 62 63 63 62 62 62 61 60 60
76 77 77 76 76 76 76 76 76 77 77 77 77 77 77 77 76 75 73 72 72 72 74 75 74 73 71 69 68 67 66 66 66 66 65 64 62 61 60 60 61 62 63 63 64 63 63 63 62 62 62 62 62 61 61 61 60 60 60 61 62 62 61 60 60 59 58 58 57
77 77 77 77 77 77 76 76 76 77 77 77 77 77 77 77 76 75 73 72 71 71 72 73 73 72 70 68 67 66 65 66 64 64 63 62 61 60 60 60 60 61 62 63 62 62 62 62 61 61 60 60 59 59 60 60 60 60 60 60 59 59 58 58 57 57 57 57 57
77 78 78 78 77 77 77 77 77 77 77 77 77 77 76 76 76 75 73 72 71 71 71 72 73 72 70 68 66 65 64 65 64 63 63 62 61 61 60 59 59 60 60 61 61 61 60 60 59 59 58 57 57 58 59 59 59 58 57 57 56 56 56 56 56 56 57 57 57
78 78 78 78 78 77 77 77 77 77 77 77 77 77 76 76 76 75 74 72 70 70 71 71 72 72 70 68 66 65 64 64 63 62 62 62 61 60 59 59 59 59 59 59 59 59 59 59 58 57 56 56 56 57 56 56 56 55 55 55 55 54 54 55 55 55 55 56 56
77 77 78 78 78 77 76 76 76 76 76 77 77 77 77 76 76 75 74 72 70 70 70 71 71 71 70 69 67 66 64 63 61 61 61 61 60 59 58 58 57 57 57 57 57 58 58 57 56 56 56 56 55 55 54 53 53 53 53 53 54 54 54 54 54 55 55 55 55
73 74 75 76 76 75 75 74 74 74 74 75 76 77 77 77 76 75 74 72 70 70 69 70 71 70 70 68 67 65 64 62 60 59 58 58 58 57 57 56 55 56 56 56 54 54 54 53 54 55 55 54 54 53 52 51 52 52 52 52 53 53 53 54 54 54 54 54 54
72 72 72 72 72 72 72 71 71 71 72 74 76 76 77 77 76 75 73 72 70 69 69 70 70 70 68 66 65 64 63 61 58 56 55 55 55 55 54 54 54 55 54 53 49 47 47 48 51 53 54 53 52 51 50 50 50 51 51 52 52 52 53 53 53 53 54 54 54
71 71 71 71 71 71 71 71 70 70 71 73 74 75 76 76 75 75 73 72 70 69 69 69 69 67 65 65 64 63 62 59 56 54 53 52 52 52 52 52 52 52 52 50 46 44 44 44 46 48 50 51 51 50 49 49 50 50 51 52 52 52 53 53 54 54 54 54 54
70 70 70 71 71 70 70 70 70 69 70 71 72 73 73 73 73 73 72 71 69 68 67 66 65 62 60 61 60 60 59 56 54 53 52 51 51 51 52 51 51 51 49 47 44 43 42 43 43 44 47 51 51 50 50 49 50 51 52 53 53 53 54 54 54 55 55 54 54
69 70 70 70 70 70 70 70 69 69 68 69 69 69 70 70 69 68 68 66 65 64 63 62 60 59 58 58 57 57 56 54 52 52 51 52 52 53 54 54 53 51 48 45 44 43 42 43 43 43 44 47 51 51 51 51 51 52 53 54 55 55 54 55 55 55 54 54 54
69 69 69 69 69 69 69 69 69 68 68 68 68 68 67 66 65 64 63 61 61 60 60 60 59 59 59 59 57 55 54 53 52 52 52 52 53 53 53 54 54 52 48 44 43 43 42 42 42 42 42 44 49 51 52 51 52 53 53 55 55 55 55 55 55 54 54 53 54
69 69 69 69 69 69 68 68 67 67 66 65 66 65 65 64 64 62 61 60 59 59 59 59 59 58 57 56 54 53 53 54 53 53 53 52 53 53 54 53 54 52 48 42 42 42 42 42 42 41 41 42 47 51 52 52 53 53 53 54 54 54 54 54 54 54 54 54 54
69 69 68 68 68 67 67 67 66 66 65 65 65 65 64 63 62 60 59 59 59 58 58 58 58 57 56 55 54 54 55 55 54 54 54 53 53 53 53 53 53 51 47 41 41 42 42 42 42 41 40 40 45 50 53 53 53 53 53 53 53 53 54 54 54 54 54 55 55
68 68 67 67 67 66 66 66 66 66 66 65 65 64 63 62 61 60 59 59 59 58 58 58 58 57 57 56 55 55 55 55 55 54 54 54 54 53 53 52 53 50 46 40 41 42 42 42 42 41 40 39 44 49 53 53 53 53 53 53 54 54 55 55 55 54 54 55 56
68 67 67 67 67 67 67 67 66 66 66 65 64 63 62 62 62 61 60 60 60 60 60 59 59 58 57 55 56 56 56 56 56 55 54 54 54 53 53 52 52 50 45 39 41 41 41 42 41 41 40 39 44 49 52 53 53 52 52 53 54 55 55 55 55 55 55 56 56
69 69 69 68 67 67 66 66 66 66 65 65 64 63 63 63 63 62 61 61 61 61 61 61 60 58 57 56 57 57 57 56 56 56 55 54 54 53 53 52 53 49 43 39 40 41 41 41 41 41 40 39 44 48 51 52 52 52 52 52 53 54 54 54 55 55 55 56 56
71 71 71 70 69 68 67 66 66 66 65 64 64 64 64 64 64 63 62 61 61 62 62 61 60 58 57 57 58 58 57 56 55 55 55 55 54 53 52 52 53 47 40 39 40 40 41 41 41 40 40 40 45 48 51 51 52 51 51 51 51 51 52 53 54 54 55 55 55
72 72 72 71 70 69 67 66 66 66 65 64 64 64 65 65 64 64 63 61 61 61 61 60 58 57 56 57 57 57 56 55 54 54 54 55 54 53 53 53 53 47 39 39 40 40 40 40 40 40 40 42 46 48 50 51 51 51 50 49 49 50 50 51 52 52 53 54 54
74 73 72 72 71 70 68 67 66 65 65 64 65 65 65 65 65 64 63 61 62 61 60 58 56 56 56 56 55 55 54 54 54 54 54 54 54 54 53 53 53 47 40 38 39 40 40 40 40 40 41 44 47 49 49 50 49 48 48 47 47 47 48 48 48 49 50 51 51
75 74 73 72 72 71 69 68 66 66 65 65 66 66 66 65 64 63 62 60 61 60 58 57 56 56 56 56 55 54 54 53 53 53 54 54 54 54 53 53 52 47 42 38 39 39 40 40 40 40 42 46 48 48 48 47 46 45 45 44 44 43 44 44 44 44 45 45 44
76 75 74 73 72 71 70 69 68 67 67 67 68 67 66 64 63 61 60 59 59 58 57 56 56 56 56 55 54 54 54 53 53 53 54 54 54 53 52 53 51 46 42 38 38 39 39 39 40 40 42 45 47 47 46 45 45 44 43 42 41 41 41 41 41 41 40 40 39
77 76 75 73 72 71 70 69 69 69 69 69 69 68 66 63 61 60 59 58 58 58 57 57 56 56 54 52 52 51 50 50 51 52 52 52 50 48 47 50 48 45 41 38 38 38 39 39 40 40 42 45 47 46 46 45 44 43 41 40 39 39 39 39 39 39 38 38 37
77 76 74 73 72 71 70 69 70 70 70 70 70 67 64 61 60 59 59 58 58 58 57 56 54 53 50 48 47 46 45 45 45 46 47 47 46 44 44 46 45 44 42 39 38 38 39 39 40 41 42 44 45 46 45 45 43 42 41 40 39 39 38 38 38 37 37 37 36
MSLP
1008.84 1008.96 1009.12 1009.32 1009.48 1009.60 1009.72 1009.88 1010.08 1010.24 1010.40 1010.52 1010.64 1010.80 1011.00 1011.20 1011.48 1011.68 1011.92 1012.16 1012.36 1012.60 1012.80 1012.96 1013.20 1013.44 1013.68 1014.04 1014.24 1014.44 1014.56 1014.72 1014.96 1015.16 1015.36 1015.48 1015.64 1015.84 1016.04 1016.20 1016.36 1016.64 1016.88 1017.00 1017.16 1017.36 1017.52 1017.64 1017.76 1017.92 1018.08 1018.24 1018.36 1018.40 1018.48 1018.56 1018.68 1018.84 1018.96 1019.08 1019.16 1019.20 1019.32 1019.40 1019.40 1019.48 1019.56 1019.64 1019.72
1008.80 1008.92 1009.12 1009.36 1009.48 1009.60 1009.76 1009.96 1010.20 1010.36 1010.48 1010.56 1010.64 1010.80 1011.00 1011.16 1011.40 1011.64 1011.84 1012.04 1012.24 1012.44 1012.64 1012.84 1013.08 1013.28 1013.56 1013.92 1014.20 1014.36 1014.48 1014.64 1014.92 1015.12 1015.32 1015.48 1015.64 1015.76 1015.96 1016.16 1016.32 1016.52 1016.72 1016.88 1017.08 1017.28 1017.44 1017.56 1017.68 1017.84 1018.00 1018.20 1018.28 1018.36 1018.40 1018.44 1018.48 1018.68 1018.84 1018.92 1019.04 1019.12 1019.20 1019.28 1019.36 1019.40 1019.48 1019.56 1019.64
1008.76 1008.92 1009.12 1009.36 1009.48 1009.68 1009.88 1010.08 1010.28 1010.40 1010.48 1010.60 1010.64 1010.80 1010.92 1011.08 1011.28 1011.48 1011.76 1011.92 1012.08 1012.28 1012.48 1012.68 1012.92 1013.20 1013.48 1013.80 1014.08 1014.28 1014.44 1014.64 1014.88 1015.08 1015.28 1015.44 1015.60 1015.72 1015.88 1016.08 1016.32 1016.48 1016.64 1016.80 1016.96 1017.16 1017.36 1017.48 1017.64 1017.76 1017.92 1018.04 1018.16 1018.24 1018.32 1018.36 1018.44 1018.60 1018.72 1018.80 1018.92 1019.04 1019.12 1019.20 1019.24 1019.36 1019.44 1019.48 1019.56
1008.80 1008.96 1009.20 1009.40 1009.56 1009.72 1009.92 1010.08 1010.28 1010.36 1010.44 1010.48 1010.64 1010.76 1010.88 1011.00 1011.20 1011.40 1011.60 1011.80 1012.04 1012.20 1012.40 1012.56 1012.80 1013.08 1013.40 1013.72 1014.00 1014.20 1014.40 1014.60 1014.80 1015.04 1015.20 1015.40 1015.56 1015.68 1015.84 1016.04 1016.28 1016.44 1016.60 1016.72 1016.88 1017.08 1017.24 1017.40 1017.56 1017.68 1017.80 1017.92 1018.00 1018.08 1018.16 1018.24 1018.36 1018.48 1018.64 1018.76 1018.88 1018.96 1019.04 1019.08 1019.20 1019.32 1019.36 1019.44 1019.48
1008.80 1009.00 1009.20 1009.40 1009.56 1009.72 1009.88 1010.00 1010.16 1010.24 1010.36 1010.40 1010.52 1010.64 1010.80 1010.92 1011.08 1011.28 1011.52 1011.76 1011.92 1012.12 1012.28 1012.48 1012.64 1012.92 1013.32 1013.64 1013.92 1014.20 1014.40 1014.60 1014.80 1014.96 1015.16 1015.32 1015.48 1015.64 1015.76 1016.00 1016.20 1016.36 1016.52 1016.64 1016.80 1017.00 1017.20 1017.36 1017.48 1017.60 1017.64 1017.76 1017.88 1017.92 1018.00 1018.08 1018.24 1018.40 1018.56 1018.68 1018.80 1018.92 1018.96 1019.08 1019.16 1019.24 1019.36 1019.40 1019.48
1008.76 1008.92 1009.12 1009.36 1009.48 1009.64 1009.76 1009.88 1010.04 1010.12 1010.20 1010.28 1010.40 1010.52 1010.64 1010.80 1011.00 1011.20 1011.36 1011.60 1011.76 1011.96 1012.20 1012.44 1012.60 1012.88 1013.24 1013.60 1013.88 1014.12 1014.36 1014.56 1014.76 1014.92 1015.08 1015.24 1015.44 1015.60 1015.76 1015.96 1016.12 1016.28 1016.44 1016.60 1016.80 1016.96 1017.16 1017.32 1017.36 1017.48 1017.56 1017.64 1017.72 1017.76 1017.84 1017.96 1018.12 1018.28 1018.44 1018.60 1018.72 1018.80 1018.92 1019.00 1019.12 1019.20 1019.28 1019.36 1019.36
1008.64 1008.80 1009.00 1009.20 1009.40 1009.48 1009.60 1009.76 1009.88 1009.96 1010.08 1010.20 1010.32 1010.40 1010.52 1010.68 1010.84 1011.04 1011.24 1011.40 1011.64 1011.92 1012.20 1012.40 1012.56 1012.80 1013.20 1013.52 1013.76 1014.04 1014.28 1014.52 1014.68 1014.84 1014.96 1015.16 1015.36 1015.48 1015.68 1015.88 1016.04 1016.20 1016.32 1016.48 1016.68 1016.92 1017.08 1017.20 1017.28 1017.36 1017.48 1017.64 1017.64 1017.68 1017.76 1017.88 1018.08 1018.20 1018.32 1018.40 1018.56 1018.76 1018.84 1018.92 1019.00 1019.12 1019.20 1019.24 1019.24
1008.48 1008.64 1008.84 1009.04 1009.20 1009.32 1009.40 1009.56 1009.72 1009.84 1009.96 1010.08 1010.20 1010.32 1010.44 1010.60 1010.76 1010.96 1011.20 1011.40 1011.64 1011.92 1012.16 1012.36 1012.52 1012.80 1013.08 1013.40 1013.64 1013.92 1014.16 1014.36 1014.60 1014.80 1014.92 1015.08 1015.24 1015.40 1015.60 1015.76 1015.92 1016.04 1016.16 1016.32 1016.56 1016.80 1016.96 1017.12 1017.20 1017.24 1017.36 1017.48 1017.56 1017.60 1017.64 1017.76 1017.92 1018.08 1018.16 1018.24 1018.36 1018.60 1018.76 1018.80 1018.92 1019.00 1019.08 1019.16 1019.20
1008.40 1008.52 1008.68 1008.92 1009.08 1009.16 1009.28 1009.40 1009.60 1009.76 1009.88 1009.96 1010.08 1010.24 1010.40 1010.56 1010.72 1010.92 1011.16 1011.40 1011.64 1011.88 1012.08 1012.32 1012.48 1012.76 1013.04 1013.28 1013.48 1013.72 1013.96 1014.20 1014.40 1014.64 1014.80 1014.92 1015.12 1015.32 1015.48 1015.64 1015.76 1015.88 1016.00 1016.16 1016.36 1016.60 1016.84 1017.04 1017.08 1017.12 1017.20 1017.32 1017.40 1017.48 1017.56 1017.68 1017.84 1017.96 1018.08 1018.16 1018.20 1018.40 1018.60 1018.68 1018.80 1018.84 1018.92 1018.96 1019.08
1008.28 1008.44 1008.64 1008.80 1008.96 1009.08 1009.16 1009.36 1009.52 1009.68 1009.80 1009.92 1010.08 1010.24 1010.44 1010.60 1010.76 1010.92 1011.12 1011.28 1011.56 1011.80 1012.04 1012.20 1012.48 1012.76 1013.00 1013.20 1013.40 1013.60 1013.76 1014.00 1014.20 1014.44 1014.64 1014.80 1014.96 1015.16 1015.32 1015.48 1015.60 1015.76 1015.84 1016.00 1016.20 1016.44 1016.68 1016.88 1016.96 1016.96 1017.04 1017.16 1017.24 1017.36 1017.48 1017.64 1017.76 1017.88 1017.96 1018.04 1018.08 1018.20 1018.36 1018.52 1018.64 1018.68 1018.72 1018.80 1018.84
1008.16 1008.32 1008.48 1008.68 1008.92 1009.04 1009.12 1009.28 1009.48 1009.64 1009.80 1009.92 1010.08 1010.24 1010.48 1010.64 1010.76 1010.92 1011.08 1011.20 1011.48 1011.76 1011.96 1012.12 1012.40 1012.68 1012.92 1013.16 1013.32 1013.48 1013.64 1013.84 1014.00 1014.20 1014.44 1014.64 1014.80 1014.96 1015.12 1015.28 1015.40 1015.56 1015.68 1015.84 1016.08 1016.32 1016.52 1016.64 1016.76 1016.80 1016.88 1017.04 1017.16 1017.24 1017.36 1017.52 1017.64 1017.76 1017.84 1017.88 1017.92 1018.04 1018.12 1018.24 1018.40 1018.48 1018.48 1018.48 1018.56
1008.08 1008.24 1008.40 1008.56 1008.80 1008.96 1009.08 1009.20 1009.40 1009.60 1009.76 1009.84 1010.00 1010.20 1010.40 1010.56 1010.68 1010.84 1011.04 1011.20 1011.40 1011.64 1011.88 1012.04 1012.32 1012.56 1012.80 1013.00 1013.20 1013.36 1013.52 1013.68 1013.84 1014.04 1014.20 1014.40 1014.64 1014.80 1014.92 1015.08 1015.24 1015.40 1015.56 1015.76 1016.00 1016.20 1016.36 1016.44 1016.48 1016.60 1016.72 1016.84 1017.00 1017.12 1017.24 1017.40 1017.52 1017.64 1017.68 1017.72 1017.80 1017.88 1017.92 1018.04 1018.12 1018.20 1018.16 1018.20 1018.32
1008.04 1008.20 1008.36 1008.48 1008.72 1008.92 1009.04 1009.16 1009.32 1009.48 1009.64 1009.76 1009.88 1010.08 1010.28 1010.48 1010.64 1010.80 1010.96 1011.16 1011.36 1011.56 1011.76 1011.96 1012.20 1012.48 1012.64 1012.84 1013.04 1013.20 1013.40 1013.60 1013.72 1013.88 1014.04 1014.24 1014.44 1014.64 1014.84 1014.96 1015.16 1015.36 1015.48 1015.68 1015.92 1016.08 1016.20 1016.24 1016.36 1016.40 1016.48 1016.64 1016.80 1016.96 1017.08 1017.24 1017.36 1017.44 1017.48 1017.52 1017.64 1017.64 1017.72 1017.76 1017.84 1017.88 1017.92 1017.92 1018.08
1007.92 1008.08 1008.24 1008.40 1008.64 1008.80 1008.96 1009.08 1009.20 1009.36 1009.48 1009.64 1009.76 1009.92 1010.08 1010.36 1010.52 1010.76 1010.92 1011.12 1011.28 1011.48 1011.68 1011.88 1012.12 1012.36 1012.52 1012.68 1012.92 1013.08 1013.28 1013.48 1013.64 1013.80 1013.96 1014.12 1014.32 1014.56 1014.76 1014.88 1015.08 1015.24 1015.44 1015.64 1015.80 1015.92 1016.04 1016.08 1016.20 1016.24 1016.32 1016.40 1016.60 1016.80 1016.96 1017.12 1017.20 1017.24 1017.32 1017.36 1017.44 1017.48 1017.52 1017.56 1017.60 1017.64 1017.76 1017.84 1017.92
1007.88 1008.04 1008.20 1008.36 1008.52 1008.68 1008.84 1009.00 1009.08 1009.20 1009.36 1009.48 1009.64 1009.76 1009.96 1010.20 1010.44 1010.68 1010.92 1011.08 1011.20 1011.36 1011.56 1011.76 1012.00 1012.20 1012.44 1012.64 1012.80 1013.00 1013.20 1013.36 1013.60 1013.76 1013.92 1014.04 1014.24 1014.48 1014.64 1014.80 1014.92 1015.12 1015.36 1015.48 1015.64 1015.80 1015.88 1015.92 1016.00 1016.08 1016.16 1016.20 1016.36 1016.56 1016.80 1016.96 1017.08 1017.16 1017.20 1017.20 1017.28 1017.36 1017.36 1017.40 1017.44 1017.48 1017.60 1017.72 1017.76
1007.76 1007.92 1008.08 1008.20 1008.36 1008.52 1008.68 1008.84 1008.92 1009.04 1009.20 1009.36 1009.52 1009.68 1009.88 1010.08 1010.28 1010.60 1010.88 1011.04 1011.12 1011.28 1011.44 1011.64 1011.84 1012.12 1012.44 1012.68 1012.84 1013.04 1013.20 1013.36 1013.56 1013.76 1013.92 1014.08 1014.24 1014.44 1014.60 1014.76 1014.88 1015.04 1015.20 1015.36 1015.48 1015.64 1015.76 1015.88 1015.92 1016.00 1016.04 1016.08 1016.20 1016.36 1016.60 1016.84 1017.00 1017.08 1017.08 1017.12 1017.16 1017.20 1017.20 1017.24 1017.32 1017.40 1017.48 1017.64 1017.72
1007.64 1007.80 1007.92 1008.08 1008.20 1008.36 1008.48 1008.64 1008.76 1008.88 1009.04 1009.20 1009.40 1009.60 1009.76 1009.92 1010.16 1010.48 1010.80 1011.00 1011.08 1011.20 1011.36 1011.48 1011.76 1012.04 1012.36 1012.64 1012.88 1013.08 1013.24 1013.40 1013.60 1013.76 1013.96 1014.16 1014.32 1014.48 1014.64 1014.80 1014.88 1015.00 1015.12 1015.24 1015.36 1015.52 1015.64 1015.76 1015.84 1015.92 1015.96 1016.04 1016.08 1016.20 1016.40 1016.64 1016.84 1016.96 1017.04 1017.04 1017.04 1017.04 1017.08 1017.20 1017.24 1017.32 1017.40 1017.52 1017.64
1007.48 1007.60 1007.76 1007.88 1008.04 1008.20 1008.36 1008.48 1008.60 1008.72 1008.84 1009.08 1009.32 1009.48 1009.64 1009.80 1010.04 1010.36 1010.68 1010.92 1011.04 1011.20 1011.32 1011.44 1011.64 1011.92 1012.24 1012.60 1012.84 1013.08 1013.24 1013.44 1013.60 1013.76 1013.92 1014.12 1014.36 1014.52 1014.72 1014.88 1014.96 1015.08 1015.20 1015.20 1015.32 1015.40 1015.56 1015.68 1015.76 1015.88 1015.92 1016.00 1016.08 1016.16 1016.32 1016.48 1016.68 1016.80 1016.88 1016.92 1016.92 1016.92 1017.04 1017.16 1017.20 1017.32 1017.40 1017.48 1017.60
1007.24 1007.40 1007.56 1007.72 1007.88 1008.00 1008.20 1008.36 1008.48 1008.64 1008.76 1008.92 1009.16 1009.36 1009.52 1009.76 1009.96 1010.24 1010.56 1010.84 1011.08 1011.20 1011.28 1011.36 1011.60 1011.88 1012.20 1012.52 1012.80 1013.04 1013.20 1013.40 1013.52 1013.68 1013.92 1014.12 1014.36 1014.60 1014.80 1014.92 1015.08 1015.16 1015.20 1015.20 1015.28 1015.36 1015.48 1015.64 1015.72 1015.80 1015.92 1016.00 1016.08 1016.20 1016.32 1016.44 1016.56 1016.68 1016.76 1016.80 1016.84 1016.92 1017.08 1017.20 1017.32 1017.44 1017.56 1017.68 1017.76
1007.08 1007.20 1007.36 1007.52 1007.72 1007.88 1008.04 1008.20 1008.40 1008.56 1008.68 1008.88 1009.08 1009.24 1009.48 1009.64 1009.88 1010.16 1010.48 1010.80 1011.04 1011.20 1011.28 1011.36 1011.52 1011.80 1012.16 1012.48 1012.76 1012.96 1013.16 1013.36 1013.48 1013.72 1013.92 1014.16 1014.40 1014.64 1014.80 1014.92 1015.08 1015.16 1015.20 1015.20 1015.28 1015.36 1015.48 1015.60 1015.68 1015.80 1015.92 1016.00 1016.12 1016.20 1016.28 1016.36 1016.44 1016.56 1016.64 1016.76 1016.84 1017.00 1017.12 1017.28 1017.40 1017.52 1017.64 1017.76 1017.92
1006.88 1007.00 1007.16 1007.36 1007.56 1007.76 1007.92 1008.12 1008.32 1008.48 1008.64 1008.80 1008.96 1009.16 1009.36 1009.60 1009.76 1010.08 1010.36 1010.68 1010.96 1011.20 1011.36 1011.44 1011.48 1011.72 1012.08 1012.40 1012.68 1012.92 1013.12 1013.28 1013.48 1013.72 1013.92 1014.16 1014.36 1014.60 1014.80 1014.92 1015.08 1015.16 1015.20 1015.24 1015.28 1015.36 1015.44 1015.52 1015.64 1015.76 1015.92 1016.00 1016.12 1016.20 1016.28 1016.36 1016.44 1016.56 1016.72 1016.88 1017.00 1017.16 1017.24 1017.36 1017.48 1017.56 1017.68 1017.80 1017.92
1006.64 1006.80 1006.96 1007.20 1007.40 1007.64 1007.80 1008.04 1008.24 1008.40 1008.56 1008.72 1008.88 1009.08 1009.32 1009.52 1009.68 1009.92 1010.24 1010.60 1010.92 1011.16 1011.36 1011.44 1011.48 1011.64 1011.96 1012.32 1012.64 1012.92 1013.16 1013.36 1013.60 1013.80 1014.00 1014.20 1014.44 1014.64 1014.84 1015.00 1015.08 1015.16 1015.20 1015.24 1015.28 1015.36 1015.44 1015.56 1015.68 1015.80 1015.96 1016.08 1016.20 1016.32 1016.36 1016.48 1016.60 1016.72 1016.84 1017.00 1017.16 1017.28 1017.36 1017.48 1017.56 1017.64 1017.76 1017.84 1017.92
1006.52 1006.68 1006.84 1007.08 1007.28 1007.48 1007.68 1007.92 1008.12 1008.32 1008.48 1008.64 1008.80 1008.96 1009.20 1009.36 1009.56 1009.76 1010.12 1010.52 1010.84 1011.08 1011.28 1011.44 1011.52 1011.72 1012.00 1012.36 1012.68 1012.96 1013.28 1013.52 1013.80 1014.04 1014.20 1014.36 1014.60 1014.80 1014.96 1015.08 1015.16 1015.20 1015.24 1015.28 1015.32 1015.36 1015.48 1015.60 1015.76 1015.92 1016.08 1016.20 1016.32 1016.44 1016.56 1016.64 1016.80 1016.88 1016.96 1017.08 1017.20 1017.32 1017.36 1017.48 1017.56 1017.68 1017.76 1017.92 1018.00
1006.56 1006.72 1006.84 1007.04 1007.20 1007.40 1007.64 1007.84 1008.08 1008.28 1008.48 1008.60 1008.72 1008.88 1009.04 1009.24 1009.48 1009.72 1010.04 1010.40 1010.76 1011.00 1011.24 1011.44 1011.56 1011.76 1012.08 1012.48 1012.80 1013.12 1013.44 1013.72 1014.00 1014.24 1014.48 1014.64 1014.80 1014.96 1015.16 1015.28 1015.36 1015.36 1015.36 1015.44 1015.48 1015.52 1015.56 1015.64 1015.76 1015.92 1016.08 1016.28 1016.36 1016.52 1016.64 1016.80 1016.92 1017.04 1017.08 1017.20 1017.24 1017.28 1017.32 1017.40 1017.52 1017.64 1017.76 1017.88 1017.96
1006.60 1006.76 1006.92 1007.08 1007.20 1007.40 1007.60 1007.80 1008.08 1008.24 1008.44 1008.56 1008.64 1008.76 1008.92 1009.12 1009.36 1009.60 1009.92 1010.28 1010.60 1010.88 1011.08 1011.32 1011.48 1011.76 1012.16 1012.52 1012.84 1013.16 1013.48 1013.76 1014.04 1014.28 1014.48 1014.72 1014.84 1015.04 1015.20 1015.36 1015.40 1015.44 1015.52 1015.60 1015.72 1015.76 1015.76 1015.76 1015.80 1015.92 1016.08 1016.20 1016.36 1016.56 1016.68 1016.84 1017.00 1017.12 1017.16 1017.20 1017.20 1017.24 1017.28 1017.36 1017.48 1017.52 1017.64 1017.72 1017.80
1006.60 1006.80 1006.92 1007.04 1007.20 1007.36 1007.56 1007.76 1008.00 1008.20 1008.36 1008.48 1008.64 1008.72 1008.84 1009.04 1009.24 1009.48 1009.76 1010.16 1010.48 1010.76 1010.96 1011.12 1011.28 1011.52 1011.88 1012.24 1012.60 1012.92 1013.28 1013.60 1013.80 1013.96 1014.12 1014.36 1014.52 1014.76 1014.92 1015.08 1015.20 1015.36 1015.48 1015.64 1015.76 1015.88 1015.92 1015.88 1015.92 1015.96 1016.08 1016.20 1016.36 1016.52 1016.68 1016.80 1016.92 1017.00 1017.08 1017.12 1017.20 1017.20 1017.20 1017.20 1017.24 1017.28 1017.36 1017.48 1017.64
1006.60 1006.76 1006.88 1007.00 1007.16 1007.36 1007.52 1007.72 1007.92 1008.12 1008.36 1008.52 1008.64 1008.72 1008.80 1009.00 1009.20 1009.36 1009.64 1009.96 1010.36 1010.72 1011.00 1011.16 1011.32 1011.48 1011.72 1011.92 1012.28 1012.64 1012.96 1013.28 1013.48 1013.60 1013.64 1013.76 1014.04 1014.20 1014.36 1014.48 1014.64 1014.84 1015.08 1015.36 1015.60 1015.80 1015.92 1016.00 1016.08 1016.08 1016.12 1016.16 1016.28 1016.40 1016.48 1016.56 1016.64 1016.80 1016.92 1017.00 1017.04 1017.08 1017.04 1017.00 1017.04 1017.08 1017.20 1017.36 1017.52
1006.52 1006.64 1006.80 1006.96 1007.12 1007.32 1007.48 1007.64 1007.84 1008.08 1008.28 1008.48 1008.64 1008.76 1008.92 1009.08 1009.28 1009.48 1009.68 1009.96 1010.36 1010.76 1011.12 1011.40 1011.60 1011.76 1011.92 1012.00 1012.16 1012.36 1012.64 1012.92 1013.20 1013.36 1013.48 1013.64 1013.80 1013.96 1014.08 1014.24 1014.36 1014.48 1014.64 1014.88 1015.16 1015.44 1015.68 1015.92 1016.12 1016.20 1016.20 1016.16 1016.16 1016.20 1016.32 1016.40 1016.48 1016.64 1016.72 1016.80 1016.80 1016.84 1016.88 1016.92 1016.96 1017.08 1017.16 1017.32 1017.48
1006.36 1006.56 1006.72 1006.92 1007.08 1007.20 1007.36 1007.56 1007.76 1008.04 1008.20 1008.44 1008.64 1008.80 1009.00 1009.20 1009.44 1009.68 1009.96 1010.20 1010.48 1010.80 1011.12 1011.44 1011.72 1011.92 1012.00 1012.04 1012.12 1012.32 1012.56 1012.80 1013.08 1013.36 1013.56 1013.76 1013.92 1014.04 1014.12 1014.20 1014.28 1014.36 1014.48 1014.68 1014.92 1015.20 1015.48 1015.80 1016.08 1016.28 1016.36 1016.28 1016.16 1016.16 1016.24 1016.36 1016.40 1016.48 1016.56 1016.60 1016.64 1016.72 1016.80 1016.92 1017.00 1017.08 1017.20 1017.36 1017.48
1006.24 1006.44 1006.64 1006.80 1006.92 1007.12 1007.32 1007.48 1007.72 1007.96 1008.20 1008.48 1008.72 1008.92 1009.16 1009.36 1009.56 1009.84 1010.12 1010.36 1010.64 1010.84 1011.08 1011.36 1011.56 1011.76 1011.92 1011.96 1012.16 1012.36 1012.64 1012.88 1013.16 1013.44 1013.64 1013.84 1013.92 1014.00 1014.08 1014.20 1014.32 1014.48 1014.68 1014.92 1015.12 1015.32 1015.56 1015.80 1016.08 1016.36 1016.48 1016.48 1016.36 1016.28 1016.24 1016.32 1016.36 1016.44 1016.48 1016.48 1016.56 1016.68 1016.84 1016.96 1017.08 1017.20 1017.32 1017.36 1017.44
1006.08 1006.28 1006.48 1006.68 1006.88 1007.08 1007.24 1007.48 1007.72 1007.96 1008.24 1008.48 1008.76 1008.96 1009.20 1009.48 1009.68 1009.92 1010.20 1010.40 1010.64 1010.84 1011.08 1011.32 1011.48 1011.64 1011.80 1011.96 1012.20 1012.48 1012.68 1012.96 1013.20 1013.44 1013.60 1013.68 1013.80 1013.92 1014.08 1014.20 1014.40 1014.64 1014.88 1015.20 1015.36 1015.52 1015.68 1015.92 1016.16 1016.36 1016.48 1016.56 1016.48 1016.40 1016.36 1016.36 1016.44 1016.48 1016.48 1016.52 1016.64 1016.76 1016.92 1017.04 1017.16 1017.24 1017.28 1017.36 1017.36
1005.92 1006.16 1006.36 1006.64 1006.84 1007.04 1007.20 1007.44 1007.68 1007.96 1008.24 1008.48 1008.76 1009.04 1009.28 1009.48 1009.76 1009.96 1010.16 1010.36 1010.60 1010.84 1011.08 1011.36 1011.48 1011.64 1011.80 1012.08 1012.36 1012.56 1012.80 1013.00 1013.16 1013.24 1013.36 1013.48 1013.64 1013.88 1014.08 1014.32 1014.48 1014.68 1014.92 1015.20 1015.36 1015.52 1015.76 1015.92 1016.12 1016.32 1016.48 1016.64 1016.64 1016.56 1016.48 1016.48 1016.48 1016.52 1016.56 1016.56 1016.64 1016.76 1016.92 1017.00 1017.08 1017.20 1017.24 1017.28 1017.32
1005.84 1006.08 1006.28 1006.48 1006.72 1006.92 1007.16 1007.40 1007.64 1007.92 1008.20 1008.48 1008.72 1009.00 1009.24 1009.48 1009.72 1009.92 1010.16 1010.36 1010.56 1010.80 1010.96 1011.16 1011.36 1011.60 1011.88 1012.16 1012.36 1012.60 1012.76 1012.84 1012.92 1013.04 1013.20 1013.44 1013.64 1013.88 1014.12 1014.36 1014.48 1014.64 1014.88 1015.16 1015.28 1015.44 1015.64 1015.84 1016.04 1016.20 1016.40 1016.60 1016.64 1016.60 1016.52 1016.60 1016.64 1016.68 1016.68 1016.68 1016.68 1016.80 1016.92 1017.00 1017.08 1017.20 1017.20 1017.24 1017.36
1005.68 1005.92 1006.12 1006.36 1006.56 1006.80 1007.08 1007.32 1007.60 1007.84 1008.08 1008.36 1008.64 1008.84 1009.08 1009.32 1009.52 1009.76 1010.00 1010.20 1010.44 1010.64 1010.84 1011.08 1011.28 1011.60 1011.88 1012.12 1012.32 1012.48 1012.64 1012.68 1012.80 1013.00 1013.24 1013.48 1013.68 1013.92 1014.12 1014.32 1014.44 1014.64 1014.88 1015.08 1015.20 1015.36 1015.52 1015.72 1015.92 1016.08 1016.28 1016.48 1016.60 1016.60 1016.64 1016.64 1016.76 1016.80 1016.80 1016.80 1016.80 1016.92 1017.04 1017.12 1017.20 1017.24 1017.32 1017.36 1017.48
1005.36 1005.64 1005.84 1006.08 1006.36 1006.64 1006.92 1007.20 1007.44 1007.68 1007.92 1008.16 1008.44 1008.64 1008.88 1009.16 1009.36 1009.60 1009.88 1010.12 1010.36 1010.60 1010.84 1011.08 1011.36 1011.68 1011.92 1012.08 1012.24 1012.36 1012.44 1012.64 1012.84 1013.08 1013.32 1013.52 1013.72 1013.92 1014.16 1014.36 1014.44 1014.64 1014.92 1015.00 1015.12 1015.28 1015.44 1015.60 1015.76 1016.00 1016.20 1016.40 1016.52 1016.64 1016.68 1016.72 1016.80 1016.88 1016.92 1017.00 1017.12 1017.20 1017.32 1017.40 1017.40 1017.44 1017.48 1017.48 1017.56
1005.08 1005.36 1005.56 1005.80 1006.08 1006.36 1006.68 1006.96 1007.20 1007.48 1007.72 1007.92 1008.24 1008.48 1008.76 1009.00 1009.28 1009.48 1009.76 1010.08 1010.36 1010.60 1010.88 1011.20 1011.48 1011.76 1011.96 1012.08 1012.20 1012.32 1012.44 1012.64 1012.92 1013.16 1013.36 1013.48 1013.72 1013.92 1014.16 1014.36 1014.44 1014.68 1014.92 1014.96 1015.08 1015.20 1015.40 1015.56 1015.76 1015.96 1016.20 1016.36 1016.48 1016.60 1016.68 1016.76 1016.88 1016.96 1017.08 1017.20 1017.36 1017.48 1017.60 1017.64 1017.68 1017.68 1017.64 1017.64 1017.64
1004.80 1005.08 1005.32 1005.56 1005.80 1006.08 1006.44 1006.72 1007.04 1007.32 1007.56 1007.80 1008.08 1008.36 1008.60 1008.84 1009.20 1009.48 1009.76 1010.08 1010.32 1010.56 1010.88 1011.20 1011.52 1011.72 1011.88 1011.96 1012.16 1012.36 1012.60 1012.80 1013.00 1013.20 1013.36 1013.52 1013.76 1013.92 1014.12 1014.36 1014.44 1014.68 1014.96 1015.08 1015.12 1015.20 1015.40 1015.60 1015.76 1016.00 1016.20 1016.36 1016.48 1016.60 1016.68 1016.84 1016.96 1017.12 1017.28 1017.44 1017.64 1017.76 1017.92 1018.04 1018.08 1018.08 1018.04 1017.92 1017.92
1004.52 1004.80 1005.08 1005.32 1005.60 1005.88 1006.20 1006.52 1006.88 1007.16 1007.40 1007.68 1007.92 1008.16 1008.48 1008.80 1009.12 1009.44 1009.76 1010.08 1010.28 1010.56 1010.92 1011.20 1011.48 1011.64 1011.76 1011.92 1012.16 1012.44 1012.68 1012.92 1013.08 1013.24 1013.40 1013.56 1013.72 1013.92 1014.12 1014.28 1014.48 1014.76 1015.00 1015.16 1015.20 1015.28 1015.44 1015.64 1015.80 1015.96 1016.12 1016.24 1016.40 1016.52 1016.72 1016.92 1017.08 1017.28 1017.48 1017.64 1017.92 1018.16 1018.36 1018.48 1018.56 1018.56 1018.56 1018.52 1018.48
1004.24 1004.52 1004.84 1005.08 1005.40 1005.68 1006.04 1006.36 1006.68 1007.00 1007.28 1007.56 1007.72 1007.96 1008.32 1008.72 1009.08 1009.48 1009.80 1010.08 1010.32 1010.60 1010.92 1011.20 1011.36 1011.56 1011.76 1012.00 1012.28 1012.52 1012.80 1012.96 1013.12 1013.24 1013.40 1013.56 1013.72 1013.92 1014.08 1014.28 1014.56 1014.88 1015.08 1015.24 1015.32 1015.36 1015.48 1015.60 1015.76 1015.92 1016.08 1016.16 1016.32 1016.48 1016.72 1016.92 1017.16 1017.36 1017.60 1017.84 1018.16 1018.44 1018.64 1018.80 1018.92 1019.04 1019.12 1019.12 1019.08
1004.00 1004.28 1004.64 1004.92 1005.24 1005.56 1005.88 1006.20 1006.48 1006.80 1007.08 1007.36 1007.56 1007.80 1008.20 1008.64 1009.08 1009.52 1009.92 1010.16 1010.36 1010.64 1010.88 1011.12 1011.36 1011.64 1011.92 1012.24 1012.52 1012.80 1013.08 1013.24 1013.36 1013.44 1013.56 1013.76 1013.92 1014.12 1014.28 1014.44 1014.76 1015.04 1015.24 1015.40 1015.48 1015.48 1015.52 1015.64 1015.76 1015.92 1016.04 1016.16 1016.28 1016.48 1016.72 1016.92 1017.20 1017.44 1017.72 1018.00 1018.28 1018.56 1018.80 1019.04 1019.20 1019.32 1019.44 1019.48 1019.52
1003.84 1004.16 1004.48 1004.80 1005.12 1005.48 1005.80 1006.12 1006.36 1006.64 1006.92 1007.20 1007.40 1007.72 1008.16 1008.64 1009.16 1009.60 1009.92 1010.24 1010.44 1010.64 1010.92 1011.24 1011.60 1011.92 1012.28 1012.64 1012.92 1013.20 1013.48 1013.68 1013.84 1013.92 1013.96 1014.08 1014.32 1014.48 1014.64 1014.80 1014.96 1015.16 1015.36 1015.52 1015.64 1015.64 1015.64 1015.76 1015.84 1015.92 1016.04 1016.20 1016.36 1016.56 1016.80 1016.96 1017.24 1017.52 1017.84 1018.16 1018.40 1018.68 1018.96 1019.20 1019.36 1019.52 1019.64 1019.76 1019.88
Wind_Speed
13 11 10 8 7 6 6 6 6 6 6 7 8 8 8 9 9 8 8 8 8 8 8 8 8 8 10 12 12 11 11 11 11 11 11 11 11 11 11 11 11 11 11 11 11 10 10 10 8 6 5 5 6 7 7 6 7 7 7 8 7 8 9 10 10 11 11 12 9
12 11 9 8 7 6 6 6 6 6 6 7 7 8 8 8 9 9 9 9 8 8 8 8 8 9 11 13 12 11 11 11 11 11 11 11 11 11 11 11 11 11 11 12 11 9 9 9 8 7 5 5 6 6 7 7 7 8 8 9 8 7 8 9 9 10 11 11 10
11 10 9 8 8 7 6 6 7 8 9 8 8 8 8 8 8 8 9 9 9 9 8 7 9 10 11 12 11 10 10 10 11 11 10 10 11 11 11 10 11 11 11 11 11 9 9 9 8 6 6 5 6 7 7 7 7 7 8 9 7 6 6 7 8 8 9 8 9
11 10 10 10 10 10 9 7 9 10 10 9 9 9 9 8 8 8 9 10 10 10 9 8 9 10 11 11 11 10 10 10 11 11 10 10 11 11 11 11 11 11 11 11 11 10 10 10 7 6 6 7 7 7 7 6 7 7 7 7 6 6 6 6 6 6 6 7 8
11 11 10 10 12 11 10 9 11 11 10 9 9 9 9 8 8 9 9 10 10 9 10 10 10 10 10 11 12 11 11 11 11 10 10 11 11 11 11 11 11 11 11 11 11 11 10 10 7 6 6 7 7 7 7 7 8 7 6 5 6 6 6 6 6 6 6 6 7
12 12 11 11 12 11 10 10 12 11 10 9 9 10 9 8 8 9 10 10 10 11 11 11 10 10 11 11 12 11 11 11 11 10 11 11 11 11 12 12 12 12 11 11 11 11 11 10 7 6 6 6 7 7 8 9 8 7 7 6 6 6 6 6 6 6 6 7 8
12 12 12 12 13 12 11 11 12 11 10 10 11 12 11 10 11 11 12 11 10 11 11 10 10 10 11 12 12 11 11 11 11 11 12 11 11 12 12 12 13 13 12 12 12 11 10 10 7 6 6 6 6 7 9 9 8 8 8 7 6 6 6 7 6 6 7 9 10
12 12 13 13 13 12 12 12 12 11 10 9 11 12 13 13 13 13 12 11 10 10 9 9 10 11 11 12 12 12 12 12 11 12 12 11 12 12 13 13 13 14 13 13 12 11 10 9 7 6 6 6 6 7 8 10 9 9 9 9 7 6 6 7 7 7 8 10 11
11 12 12 13 13 12 12 13 12 11 11 10 11 13 13 13 13 13 12 11 10 10 10 9 11 11 12 12 12 12 12 12 12 12 12 12 13 13 13 13 13 14 13 13 12 12 11 9 7 7 7 6 6 7 8 10 11 11 10 9 8 8 7 7 8 8 9 10 12
11 12 12 12 12 12 12 12 12 12 12 11 12 13 12 12 12 12 11 10 10 10 10 10 11 11 12 12 12 12 12 12 12 13 13 12 13 13 13 12 13 13 13 12 12 12 12 9 8 8 8 7 8 9 9 10 11 12 11 8 8 9 10 9 10 10 11 11 12
12 12 12 11 12 12 12 12 12 11 11 11 12 13 12 12 12 11 10 10 10 11 11 11 12 12 11 11 11 11 12 11 11 12 13 13 13 13 13 12 13 13 13 12 11 10 10 9 10 10 10 9 9 9 10 11 12 12 12 9 10 10 11 11 11 11 11 11 12
12 12 12 12 12 12 12 11 11 11 11 11 12 12 12 12 12 11 11 11 11 12 12 11 12 12 11 10 11 11 11 11 12 12 12 13 13 13 13 13 13 13 13 12 11 9 9 10 11 12 12 11 9 9 10 12 12 13 13 12 11 11 12 12 12 11 11 11 12
12 12 12 12 13 13 12 11 10 10 11 11 12 12 12 11 12 11 11 12 11 11 10 11 11 11 11 11 11 11 11 11 12 12 12 12 12 13 13 13 13 12 12 11 11 10 10 11 12 13 13 13 10 10 10 12 13 13 13 13 13 12 12 13 13 12 12 12 12
12 12 12 12 13 13 12 11 10 10 10 12 11 11 11 11 11 11 11 11 11 11 10 11 10 10 11 11 11 11 11 11 12 12 12 12 11 12 12 12 12 12 11 11 11 11 12 12 13 13 14 14 12 11 11 12 13 13 13 13 13 13 13 13 13 13 13 12 12
12 12 12 13 13 12 11 11 9 9 10 11 11 10 10 10 10 10 10 11 11 11 10 10 10 10 10 11 11 11 11 11 12 12 12 11 11 12 12 12 12 12 11 11 11 12 12 13 13 13 14 14 13 13 12 12 12 12 13 13 13 13 13 13 13 13 12 12 12
13 13 13 13 13 12 11 11 9 9 10 10 10 10 10 9 10 10 10 11 10 10 10 10 10 10 10 10 10 11 11 11 11 11 11 10 10 11 11 11 11 12 12 12 12 12 12 12 12 12 13 13 13 13 13 12 12 12 13 13 13 13 13 13 13 12 12 12 12
13 13 13 13 13 13 12 11 9 9 9 10 11 10 10 9 9 9 10 10 10 10 11 12 10 10 9 9 10 10 10 10 10 10 10 10 10 10 10 10 10 11 12 12 12 12 12 12 11 12 12 13 13 13 12 12 12 12 13 13 13 13 12 12 12 12 11 11 12
14 14 14 14 14 14 13 12 10 10 10 11 11 11 10 9 9 10 10 11 10 11 12 12 11 10 10 10 9 9 9 9 10 10 10 10 10 10 10 10 10 10 11 12 12 12 13 13 12 12 12 12 12 11 11 12 12 12 13 13 12 12 11 10 10 9 9 9 9
14 14 14 14 14 14 13 13 12 11 11 11 11 11 11 11 11 10 10 11 11 11 12 12 11 10 10 10 10 9 9 9 10 10 10 10 10 10 10 10 10 10 11 12 12 12 12 12 12 12 12 11 11 10 11 11 11 12 12 12 11 10 9 7 7 6 6 6 7
15 15 14 14 14 14 13 13 12 12 11 11 11 12 12 12 12 12 11 11 11 11 12 12 11 11 11 11 11 10 9 9 10 10 10 10 10 10 10 10 10 11 11 11 12 12 12 12 12 12 11 11 10 11 11 11 11 11 10 9 8 7 6 5 5 5 5 6 6
15 15 14 14 14 14 13 13 12 12 12 11 12 12 13 13 13 13 12 12 12 12 12 12 12 12 12 12 12 11 10 8 9 10 10 10 10 11 11 11 11 11 11 11 11 11 12 11 11 11 10 10 10 10 10 9 9 8 7 6 6 5 5 5 5 5 6 6 7
15 14 14 14 14 14 13 13 13 13 12 12 13 13 13 13 13 13 13 12 12 12 12 13 12 12 12 12 12 11 10 8 8 8 9 9 9 10 10 9 10 10 11 11 11 11 11 11 10 10 9 9 9 9 8 7 6 6 6 5 5 5 5 5 5 6 6 6 7
14 13 13 13 13 14 13 13 13 13 13 13 13 13 13 13 13 13 13 13 12 12 12 12 11 11 11 11 10 10 9 7 7 7 7 7 7 8 8 7 8 9 10 9 9 10 9 9 9 9 8 8 8 7 6 5 5 5 5 6 6 6 6 6 6 6 6 7 7
12 12 11 10 12 13 13 13 13 13 13 13 13 14 14 14 14 13 13 13 13 13 12 10 9 9 9 9 9 9 8 8 7 7 6 6 6 6 6 5 6 7 8 7 7 7 7 7 7 8 8 8 7 6 5 5 6 6 7 7 7 7 7 7 7 8 8 8 8
11 10 10 9 10 11 11 11 12 12 13 13 13 13 14 14 14 13 13 14 13 13 13 12 10 9 9 9 9 9 9 9 9 9 9 8 8 7 6 6 6 6 6 5 6 7 7 7 7 7 8 7 7 6 6 7 8 8 8 8 8 8 8 9 9 10 10 11 10
11 11 10 10 10 11 11 12 12 12 13 13 13 13 13 13 13 13 14 14 14 13 13 13 12 11 11 11 11 11 11 10 11 12 12 12 12 11 11 9 9 7 7 6 8 8 9 9 8 8 7 7 7 7 7 8 9 9 9 9 9 9 9 10 10 11 11 11 11
12 11 11 11 11 12 12 12 12 13 13 13 13 13 12 12 12 12 13 14 13 12 11 11 10 10 10 11 12 13 12 11 12 13 13 14 14 15 14 12 11 10 9 10 11 12 12 11 10 9 8 8 8 8 8 7 9 9 10 10 10 10 10 10 10 10 10 10 10
12 12 12 12 12 13 13 13 13 13 14 13 13 12 10 9 8 9 10 11 11 10 9 7 7 7 7 8 11 12 13 12 12 12 12 12 13 14 14 12 11 11 12 14 15 15 14 13 12 10 9 8 7 7 7 7 8 8 9 9 9 9 10 9 9 8 8 9 9
14 13 13 13 13 13 13 13 13 13 13 12 11 9 8 7 7 7 8 10 11 11 9 8 7 7 7 9 10 11 12 12 11 10 9 10 11 12 13 12 12 12 12 14 15 15 15 14 12 10 8 7 5 5 5 6 6 7 7 7 7 8 8 7 6 6 7 7 8
14 14 14 14 14 13 13 13 12 12 11 10 9 8 8 8 9 10 10 11 12 11 10 9 8 9 10 10 10 10 10 10 9 9 9 11 12 12 12 12 11 10 9 10 11 12 12 12 11 10 8 6 5 4 4 5 5 5 6 5 6 6 6 6 6 6 7 7 8
14 14 13 13 13 12 12 12 11 11 11 10 11 10 10 10 10 11 11 12 12 11 10 10 11 11 11 10 9 9 9 9 9 10 11 12 13 13 12 11 10 8 6 7 9 10 10 11 11 10 9 7 5 4 4 4 4 4 4 4 5 6 6 6 7 7 7 8 8
13 12 12 12 12 12 12 12 12 12 12 12 12 11 11 10 10 10 11 12 12 12 12 12 12 12 12 11 10 10 10 10 11 12 12 12 12 12 10 9 9 7 6 7 9 10 11 12 12 12 11 9 6 5 4 4 3 3 3 4 5 6 6 6 6 7 8 8 8
13 12 13 13 13 12 12 12 12 12 13 13 12 12 11 11 11 11 12 12 12 13 14 14 14 13 12 11 10 10 11 12 13 13 12 11 11 10 9 8 8 6 6 9 11 12 13 14 14 14 13 11 8 6 5 4 3 2 3 3 4 5 6 6 6 6 7 7 7
14 14 14 14 13 13 13 13 13 13 13 13 13 12 12 12 12 12 12 12 12 12 13 13 13 12 11 11 11 11 11 11 11 11 11 10 9 9 9 8 7 5 5 10 11 13 14 14 14 14 13 11 8 7 6 5 3 2 2 2 2 2 3 4 4 5 5 6 6
16 15 15 15 14 14 13 14 13 14 14 14 14 13 13 13 13 13 13 12 12 12 12 11 11 10 9 10 10 11 11 10 9 9 9 9 9 9 9 8 7 5 6 10 12 12 13 13 13 13 12 10 8 6 6 5 3 2 2 3 2 2 0 2 2 3 4 5 6
16 16 16 15 15 15 14 15 14 14 15 14 14 14 14 14 13 12 12 12 12 12 12 11 10 9 9 9 9 9 9 8 8 8 8 8 9 9 9 9 8 5 5 9 10 11 12 11 12 11 11 8 7 6 5 4 2 3 4 5 4 3 2 1 0 1 2 3 4
16 16 16 15 15 15 15 15 15 15 15 14 14 14 14 14 13 12 12 12 12 12 12 11 10 10 10 10 8 7 6 6 7 7 7 8 8 9 9 9 7 5 4 6 9 10 11 11 11 11 10 7 6 5 4 2 3 4 6 6 6 6 5 4 4 4 3 2 1
16 16 16 15 15 15 15 15 15 15 15 14 14 14 14 13 12 12 11 11 12 12 12 11 10 10 9 8 7 6 6 6 6 7 7 8 8 9 9 9 6 4 4 4 7 10 11 12 12 11 10 7 7 5 4 4 5 5 6 6 7 7 6 6 6 6 7 8 7
16 16 16 15 15 15 15 15 15 15 14 14 14 14 14 12 11 11 11 10 11 11 11 11 10 9 7 6 6 5 5 5 5 6 6 6 6 6 6 7 5 4 4 4 6 9 11 12 13 11 9 7 6 6 5 5 6 6 7 7 6 6 6 6 5 6 7 10 11
15 15 15 15 15 15 15 15 15 15 14 14 14 13 13 12 11 11 11 9 10 10 10 9 8 7 6 6 7 6 6 5 4 4 4 4 3 3 2 4 5 5 5 4 5 7 10 11 12 10 8 6 6 6 5 6 7 7 7 7 6 6 6 6 5 6 6 8 10
13 14 14 14 14 14 14 14 14 14 14 13 13 12 11 11 11 11 10 9 9 8 7 7 8 9 9 9 9 10 10 10 9 9 9 9 9 8 7 7 7 6 6 5 5 7 9 10 10 9 7 6 6 5 5 6 7 7 8 7 7 6 6 6 5 6 6 7 8
Wind_Direction
155 155 154 153 152 152 149 145 147 152 157 163 163 163 163 164 163 163 163 164 165 166 166 163 164 161 159 158 164 167 167 162 164 167 170 172 174 174 176 179 176 177 179 184 181 183 187 190 189 188 190 195 200 201 201 202 202 205 209 212 216 220 223 225 227 226 225 225 222
149 148 146 143 144 143 142 142 149 157 164 168 166 165 165 166 163 164 164 165 166 166 165 162 162 160 158 157 163 167 167 163 164 168 172 175 178 178 178 180 180 181 182 185 182 183 187 191 191 190 190 192 199 203 205 208 205 207 210 214 217 220 223 225 227 227 226 227 225
147 147 147 147 149 150 151 153 160 166 169 169 168 167 167 167 164 165 166 165 166 165 164 162 163 161 158 157 162 167 169 166 166 169 174 178 182 182 181 181 183 184 185 187 185 186 188 191 192 192 193 193 199 203 207 210 208 209 212 215 217 219 220 224 225 225 225 226 225
152 152 153 157 160 161 162 163 167 170 170 169 168 168 168 167 164 165 166 164 166 167 167 166 164 160 158 158 162 167 171 171 171 174 178 181 184 185 184 181 184 187 189 190 189 189 190 191 193 196 198 199 203 205 207 207 206 208 211 214 216 218 218 220 220 221 223 224 225
158 159 160 164 168 168 168 168 170 171 170 168 168 168 169 167 164 164 166 167 170 170 169 170 166 161 159 160 164 168 172 175 176 179 182 184 186 187 186 184 187 189 191 191 191 190 190 191 194 199 202 203 204 207 209 206 205 205 207 210 213 215 216 216 216 217 219 221 221
163 163 164 167 171 172 172 170 171 171 170 169 169 169 169 168 166 167 168 169 170 169 169 171 168 163 159 163 167 170 174 178 180 184 186 186 187 187 188 188 190 192 192 191 191 190 190 192 197 201 204 207 209 210 209 206 205 205 207 207 209 211 213 213 214 215 217 219 219
166 166 167 169 174 175 174 170 171 171 171 170 171 171 170 170 167 168 168 167 166 166 167 170 170 165 162 166 170 173 177 180 183 187 189 188 188 189 190 191 194 195 194 193 191 190 191 195 199 202 203 205 210 211 209 204 202 205 208 209 206 208 211 212 211 213 217 220 221
170 170 170 171 175 176 174 169 170 171 173 172 173 172 172 171 168 167 167 165 164 164 167 170 171 168 166 170 174 177 179 182 185 189 192 191 190 191 192 193 197 198 197 195 191 189 190 195 202 204 203 202 208 211 209 204 202 205 210 212 207 205 207 213 211 212 216 221 221
173 174 173 173 177 177 175 170 170 172 174 174 173 173 173 173 170 168 167 167 166 167 169 172 174 173 172 175 178 180 183 186 187 190 192 193 192 193 194 195 199 200 199 196 193 192 192 195 204 207 205 203 207 209 208 204 204 207 211 215 210 206 205 210 211 213 215 219 220
176 176 175 174 178 178 176 171 171 173 176 174 172 172 173 174 172 170 170 171 168 171 174 176 177 176 177 180 183 185 187 189 190 191 192 195 194 195 196 196 198 199 199 197 194 194 196 198 206 209 209 206 209 209 207 203 205 208 210 215 212 208 207 208 211 214 216 217 217
178 177 176 174 177 179 178 174 172 175 177 176 173 172 174 177 175 174 174 175 172 175 179 180 179 179 181 184 187 189 190 192 192 192 193 195 195 196 197 198 199 199 198 196 193 194 198 202 208 210 211 209 210 209 207 204 206 208 211 214 212 211 210 209 210 213 215 216 215
179 179 178 175 177 179 180 177 175 176 179 179 175 174 176 179 178 177 177 180 177 178 181 182 182 183 184 186 190 192 193 194 195 195 195 196 196 197 198 200 200 200 199 196 193 195 200 206 209 211 212 210 209 208 206 204 206 208 211 212 212 212 212 211 211 212 214 214 213
180 180 179 176 176 178 180 180 178 178 180 182 179 178 178 179 180 180 181 184 182 182 183 184 184 186 188 190 191 193 194 195 197 199 199 197 197 198 200 202 201 200 199 196 195 198 203 208 211 213 213 211 209 208 206 204 206 208 210 210 211 212 213 213 212 213 214 213 212
180 180 179 177 176 178 181 182 181 180 181 182 181 180 178 178 180 181 184 187 186 186 185 186 186 188 191 193 193 194 195 195 198 200 202 200 198 198 200 203 201 200 198 196 198 202 206 210 212 214 215 213 210 207 205 204 207 209 210 210 211 213 214 215 214 213 213 213 212
181 181 180 179 178 179 181 183 183 181 181 182 182 180 178 177 178 181 185 190 189 189 188 187 187 189 192 194 195 195 196 197 198 201 203 203 200 198 200 203 201 199 198 199 200 204 208 212 213 215 216 214 211 207 204 203 207 210 211 212 212 214 215 215 214 213 211 211 212
183 182 182 182 181 181 182 184 184 182 181 181 182 181 180 178 177 179 185 191 191 192 192 191 189 188 189 193 195 195 196 198 198 200 202 202 199 198 199 202 201 201 201 201 201 204 208 212 214 215 216 215 212 208 204 202 206 210 214 215 215 215 215 215 215 213 212 210 212
185 185 185 185 185 185 185 185 185 184 182 182 182 182 182 181 177 178 183 190 192 195 195 193 190 187 186 189 192 193 195 198 198 197 198 198 196 195 196 199 201 202 203 204 203 203 206 210 212 214 215 216 214 210 205 202 205 210 214 217 218 217 217 215 215 215 214 212 213
189 188 187 189 189 188 188 187 187 186 185 183 183 183 184 184 180 178 181 189 194 197 198 195 191 187 184 185 186 190 193 198 197 196 195 196 193 191 192 196 200 202 204 205 205 204 205 208 209 211 212 214 213 211 207 203 205 209 214 218 219 219 218 217 218 217 216 212 213
192 191 190 191 191 191 190 189 190 189 187 186 185 185 186 187 184 181 181 187 193 198 200 198 193 187 182 181 183 187 192 197 198 197 194 193 189 188 189 193 198 202 204 206 206 206 206 206 207 207 208 210 210 209 207 205 207 209 212 216 217 217 217 216 216 215 212 208 208
194 194 193 193 193 193 192 192 192 191 190 189 187 187 188 189 187 184 182 185 190 196 201 201 195 187 181 179 181 185 190 194 195 194 191 188 185 186 189 192 197 201 205 207 208 207 206 206 205 205 205 205 205 206 207 207 208 209 210 212 213 212 209 206 205 204 202 200 202
196 196 195 194 193 193 193 193 193 193 192 191 190 189 189 190 189 186 183 182 186 192 198 202 197 189 181 179 181 185 189 191 189 188 187 185 186 187 190 192 196 201 205 208 208 208 207 205 203 202 201 200 202 204 205 206 205 204 204 204 203 202 199 195 194 195 195 195 196
198 197 196 194 194 194 193 193 193 194 194 194 192 191 190 191 191 187 183 179 183 188 195 201 199 192 184 181 183 185 186 186 182 184 185 184 186 188 191 193 198 202 206 209 209 208 206 204 200 198 196 197 200 201 202 201 200 198 197 199 199 197 194 189 187 189 191 192 191
199 198 197 195 195 194 194 193 193 194 196 196 194 192 191 192 191 187 181 177 181 187 192 199 200 194 187 182 181 181 180 176 173 176 180 179 183 187 192 197 203 207 209 211 210 207 203 199 194 192 192 193 195 197 199 200 205 206 207 209 207 204 199 195 193 194 195 195 195
200 199 198 197 196 195 194 193 193 194 196 198 196 194 192 191 191 186 181 177 180 184 187 193 195 189 181 174 174 174 172 167 164 165 168 170 176 184 193 202 212 217 218 219 215 208 200 191 189 188 189 190 191 193 197 202 211 216 218 218 216 213 209 206 205 205 206 206 206
199 199 198 196 194 192 191 189 189 191 194 197 198 196 193 191 190 186 181 178 179 181 183 186 184 176 168 164 167 169 168 165 163 162 162 164 169 177 188 203 214 220 223 225 219 210 201 190 187 186 187 187 188 191 197 203 210 215 218 219 217 215 213 212 211 211 212 212 211
197 197 197 195 192 191 189 188 187 189 192 196 198 198 195 192 190 187 183 179 179 179 181 182 176 168 161 161 165 168 170 169 170 169 168 169 173 179 187 196 202 207 213 217 212 207 201 194 189 185 184 185 187 191 196 202 205 209 213 216 215 214 213 212 212 211 211 211 210
195 196 195 194 192 191 190 188 187 187 189 193 197 198 196 193 191 187 183 178 175 174 174 175 166 160 157 159 163 168 172 175 179 179 178 177 181 186 191 195 196 198 201 203 203 202 200 196 192 189 188 189 190 191 193 196 200 204 208 212 212 212 212 213 212 210 207 207 206
194 194 195 194 193 193 191 189 187 187 188 191 194 194 191 185 182 178 172 165 160 158 158 159 153 152 155 160 166 172 176 178 182 185 186 187 191 195 197 200 202 202 201 198 197 196 195 195 194 194 194 196 193 191 190 191 195 199 204 209 210 211 212 214 211 207 203 203 203
194 195 195 196 196 195 193 190 188 186 185 185 186 182 173 159 153 146 141 140 144 148 152 156 155 159 166 173 175 177 179 180 182 186 192 199 203 205 206 207 209 209 205 199 194 191 190 191 194 198 201 204 198 191 187 189 193 196 200 204 206 208 210 212 207 203 201 203 204
195 195 196 197 196 195 192 188 184 180 176 173 172 166 157 148 143 139 139 142 149 154 159 161 163 169 174 178 177 179 181 183 185 190 198 206 211 213 214 212 214 212 206 194 188 185 184 187 192 199 205 210 211 200 192 191 194 195 196 197 198 200 202 205 204 203 204 205 206
195 194 194 194 193 191 187 182 177 172 170 170 169 163 155 148 146 147 149 153 157 159 161 163 167 172 175 175 174 178 182 186 192 199 205 210 213 215 216 215 219 216 202 179 177 178 180 184 191 197 202 206 216 216 207 198 197 193 189 187 188 192 197 202 204 206 207 209 207
191 190 190 190 189 187 184 179 175 172 171 171 169 164 159 157 156 157 158 160 161 163 165 168 171 173 174 174 175 180 187 193 200 205 209 211 213 214 214 213 218 215 196 171 174 177 181 186 192 196 198 197 209 220 221 210 203 194 188 187 190 194 198 203 205 207 209 212 210
188 188 188 189 189 187 183 179 176 174 173 174 173 172 172 175 174 171 168 166 166 169 171 174 175 175 174 175 180 187 194 202 206 208 210 212 213 212 211 210 215 211 191 172 176 180 184 188 192 193 192 190 199 213 222 217 206 195 193 196 198 200 203 208 210 211 212 213 212
190 191 192 191 190 187 184 180 179 178 179 180 180 180 180 183 179 175 172 170 171 172 174 176 176 175 175 178 186 193 200 206 208 210 211 212 212 211 210 210 212 201 178 172 179 183 185 188 190 189 186 183 191 205 218 221 212 197 187 188 186 196 209 220 222 223 221 215 213
195 195 196 195 191 188 184 182 181 181 182 182 182 180 179 178 177 174 171 170 170 171 172 173 173 173 177 184 194 201 205 207 208 209 210 209 209 208 208 213 210 190 165 171 178 182 184 186 185 181 178 176 186 200 213 221 211 177 132 104 86 83 143 233 234 231 226 219 215
198 198 198 196 191 187 183 181 180 180 179 178 177 177 176 175 174 172 169 167 167 168 169 169 171 175 183 191 199 204 206 206 204 205 206 205 204 204 206 214 208 183 156 168 172 174 175 175 172 167 165 168 181 196 206 213 181 124 105 94 87 83 79 74 65 239 232 222 212
199 198 197 196 191 186 182 180 178 178 178 176 175 175 174 172 171 169 167 165 166 167 168 169 174 183 190 193 194 195 196 197 196 197 199 200 200 201 204 210 203 176 145 158 161 161 160 158 155 154 155 164 176 183 182 162 117 101 96 91 82 72 62 53 45 37 32 34 109
198 197 196 195 190 185 181 179 178 178 178 178 176 174 171 168 167 165 164 164 165 166 168 172 180 187 190 187 183 180 181 185 188 190 193 197 198 201 204 207 189 156 129 139 148 150 149 149 148 149 153 162 166 162 146 122 112 105 100 93 82 70 60 53 47 43 41 42 46
196 195 194 193 189 184 180 178 179 178 179 181 179 173 167 163 162 162 163 164 164 166 169 175 180 180 176 165 158 155 157 165 174 181 187 192 194 199 201 197 162 127 109 115 137 143 145 146 147 148 149 153 153 146 135 126 122 116 109 101 93 83 74 67 62 58 53 49 46
193 192 191 190 186 182 179 178 179 179 180 183 181 172 162 156 156 158 160 163 164 165 167 170 164 152 134 115 107 99 90 78 80 97 114 113 93 84 97 125 110 100 93 94 119 133 139 142 143 143 142 142 141 137 132 131 127 122 117 110 107 100 93 85 79 74 68 61 54
189 187 185 183 180 178 176 177 179 179 180 184 179 165 151 147 148 152 156 160 160 156 149 137 123 111 101 93 90 85 78 68 62 63 68 71 67 63 64 78 85 87 88 91 107 121 130 135 136 136 134 132 132 131 131 132 130 127 123 119 116 112 106 100 92 85 78 73 67